Simultaneous Nadir Overpasses (SNOs) Predictions

Prediction of SNOs between METOP-B and NOAA-19 Satellite Orbit:

Table of predicted SNOs for the next 14.0 days since TLE Epoch: 1/16/2015
Index Date (METOP-B) Time (METOP-B) Lat,Lon (METOP-B) SZA (METOP-B ) Date (NOAA-19) Time (NOAA-19) Lat,Lon (NOAA-19) SZA (NOAA-19 ) Distance(km) Time Diff (sec)
1 01/26/2015 19:20:06 74.90,-112.70 93.53 01/26/2015 19:18:56 74.87,-114.55 93.57 53.56 70
2 01/26/2015 20:10:55 -74.54, 53.64 86.82 01/26/2015 20:09:46 -74.56, 53.61 86.78 2.92 69
3 01/26/2015 21:01:35 74.54,-139.02 93.18 01/26/2015 21:00:52 74.54,-139.11 93.19 2.74 43
4 01/26/2015 21:52:17 -74.52, 28.25 86.85 01/26/2015 21:51:48 -74.51, 28.23 86.85 0.67 29
5 01/26/2015 22:42:58 74.47,-164.54 93.10 01/26/2015 22:42:54 74.49,-164.49 93.12 2.94 4
6 01/26/2015 23:33:39 -74.50, 2.86 86.89 01/26/2015 23:33:50 -74.47, 2.85 86.92 3.58 11
7 01/27/2015 00:24:20 74.45, 170.07 93.06 01/27/2015 00:24:56 74.45, 170.13 93.05 2.05 36
8 01/27/2015 01:15:02 -74.43, -22.66 86.97 01/27/2015 01:15:53 -74.47, -22.66 86.94 3.95 51
9 01/27/2015 02:05:44 74.33, 144.42 92.94 01/27/2015 02:06:57 74.35, 144.88 92.93 13.90 73




NCC Satellite Simultaneous Nadir Overpasses (SNOs) Prediction Service
